Home   Weather   Jackson   Past weeks
Flag for USA

Past Weather in Jackson, Wyoming, USA — Yesterday and Last 2 Weeks

Now
26 °F

Overcast.


Feels Like: 21 °F
Forecast: 39 / 22 °F
Wind: 5 mph from South

Location: Jackson Hole

Current Time: Mar 29, 2020 at 7:15:25 am

Latest Report: Mar 29, 2020 at 5:56 am


Visibility: 10 mi

Pressure: 30.13 "Hg (23.68 "Hg at 1901m altitude)

Humidity: 84%

Dew Point: 22 °F

Location of JacksonLocation

Past Weather in Jackson — Graph

°F

Jackson Temperature Yesterday

Maximum temperature yesterday: 34 °F (at 4:56 pm)
Minimum temperature yesterday: 21 °F (at 4:56 am)
Average temperature yesterday: 27 °F

High & Low Weather Summary for the Past Weeks

 TemperatureHumidityPressure
High42 °F (Mar 17, 4:56 pm)100% (Mar 15, 12:01 am)30.25 "Hg (Mar 15, 12:01 am)
Low4 °F (Mar 27, 6:56 am)40% (Mar 26, 5:56 pm)29.75 "Hg (Mar 18, 7:02 am)
Average30 °F80%30.00 "Hg
* Reported Mar 14 5:56 am — Mar 29 5:56 am, Jackson. Weather by CustomWeather, © 2020

Note: Actual official high and low records may vary slightly from our data, if they occured in-between our weather recording intervals... More about our weather records

Jackson Weather History for the Previous 24 Hours

Scroll right to see more
 ConditionsComfort  
Time TempWeatherWind HumidityBarometerVisibility
5:56 am
Sun, Mar 29
26 °FOvercast.5 mph84%30.13 "Hg10 mi
4:56 am26 °FOvercast.6 mph84%30.13 "Hg10 mi
3:56 am28 °FOvercast.3 mph81%30.12 "Hg10 mi
2:56 am29 °FOvercast.No wind82%30.12 "Hg10 mi
1:56 am28 °FOvercast.No wind85%30.12 "Hg10 mi
12:56 am29 °FOvercast.3 mph85%30.13 "Hg10 mi
11:56 pm
Sat, Mar 28
29 °FLight snow. Mostly cloudy.No wind89%30.15 "Hg9 mi
10:56 pm29 °FLight snow. Overcast.No wind89%30.13 "Hg9 mi
9:56 pm29 °FLight snow. Mostly cloudy.No wind89%30.15 "Hg10 mi
8:56 pm30 °FOvercast.8 mph82%30.16 "Hg10 mi
7:56 pm33 °FMostly cloudy.9 mph70%30.15 "Hg10 mi
6:56 pm33 °FLight snow. Mostly cloudy.6 mph63%30.15 "Hg7 mi
5:56 pm33 °FMostly cloudy.6 mph66%30.14 "Hg10 mi
5:38 pm34 °FLight snow. Mostly cloudy.5 mph70%30.01 "Hg6 mi
4:56 pm34 °FMostly cloudy.6 mph61%30.12 "Hg10 mi
3:56 pm33 °FMostly cloudy.12 mph63%30.12 "Hg10 mi
2:56 pm33 °FOvercast.15 mph56%30.10 "Hg10 mi
1:56 pm33 °FMostly cloudy.8 mph61%30.10 "Hg10 mi
12:56 pm33 °FMostly cloudy.5 mph66%30.11 "Hg10 mi
12:24 pm32 °FOvercast.No wind69%30.00 "Hg8 mi
10:56 am32 °FOvercast.No wind69%30.12 "Hg6 mi
10:20 am27 °FLight snow. Overcast.5 mph74%30.00 "Hg6 mi
9:56 am26 °FLight snow. Mostly cloudy.6 mph77%30.12 "Hg3 mi
9:33 am27 °FLight snow. Mostly cloudy.6 mph74%29.99 "Hg2 mi
8:56 am23 °FLight snow. More clouds than sun.3 mph88%30.13 "Hg1 mi
8:07 am21 °FLight snow. Mostly cloudy.8 mph93%29.97 "Hg1 mi
7:56 am21 °FLight snow. Mostly cloudy.7 mph92%30.11 "Hg2 mi
7:36 am21 °FLight snow. Overcast.8 mph86%29.96 "Hg2 mi
7:22 am21 °FLight snow. Mostly cloudy.8 mph86%29.96 "Hg1 mi
Weather by CustomWeather, © 2020

See weather overview

Advertising